Regional Weather Roundup
Issued by NWS

Home | Current Version | Previous Version | Graphics & Text | Print | Product List | Glossary On
Versions: 1 2 3 4 5 6 7 8 9 10 11 12 13 14 15 16 17 18 19 20 21 22 23 24 25 26 27 28 29 30 31 32 33 34 35 36 37 38 39 40 41 42 43 44 45 46 47 48 49 50
000
ASUS43 KMKX 230321
RWRWI

WISCONSIN REGIONAL WEATHER ROUNDUP
NATIONAL WEATHER SERVICE MILWAUKEE/SULLIVAN WI
1000 PM CDT TUE AUG 22 2017

NOTE: "FAIR" INDICATES FEW OR NO CLOUDS BELOW 12,000 FEET WITH NO
SIGNIFICANT WEATHER AND/OR OBSTRUCTIONS TO VISIBILITY.

WIZ001-002-006>008-014>016-023>028-230400-
NORTHWEST WISCONSIN

CITY           SKY/WX    TMP DP  RH WIND       PRES   REMARKS
SUPERIOR ARPT    N/A     56  52  85 NW8       29.99R
ASHLAND        PTCLDY    57  52  83 W6        29.96S
HAYWARD        PTCLDY    55  50  83 CALM      29.99S
SIREN          PTCLDY    60  50  69 NW5       30.00S
CUMBERLAND     CLEAR     55  46  71 W5        30.00S
RICE LAKE      CLEAR     57  50  76 W3        30.01S
CHETEK         CLEAR     60  49  68 W5        30.00S
LADYSMITH      PTCLDY    59  51  75 W5        30.00S
EAU CLAIRE     CLEAR     58  50  75 W6        29.99S
MENOMONIE      CLEAR     61  50  67 W6        30.01S
NEW RICHMOND   CLEAR     58  48  69 W7        30.02S
OSCEOLA        CLEAR     60  50  68 W7        30.04S
$$

WIZ003>005-009-010-017-018-230400-
NORTH CENTRAL WISCONSIN

CITY           SKY/WX    TMP DP  RH WIND       PRES   REMARKS
MANITOWISH WTR LGT RAIN  57  56  95 W12G21    29.95S
ARBOR VITAE    MOCLDY    59  52  76 W7        29.94S
WOODRUFF       MOCLDY    59  52  76 W7        29.94S
RHINELANDER    PTCLDY    58  51  78 W8        29.95S
EAGLE RIVER    CLEAR     56  48  74 NW8       29.93S
LAND O LAKES   PTCLDY    55  52  89 W6        29.94S
PHILLIPS       MOCLDY    57  53  86 CALM      29.97S
TOMAHAWK         N/A     52  49  89 W3        29.96F
MEDFORD        PTCLDY    56  49  78 W3        29.98S
MERRILL        PTCLDY    59  50  72 W6        29.96F
$$

WIZ029-030-035-036-043>047-230400-
CENTRAL WISCONSIN

CITY           SKY/WX    TMP DP  RH WIND       PRES   REMARKS
WAUSAU         PTCLDY    58  50  75 W7        29.95S
MOSINEE        PTCLDY    59  50  72 W6        29.98S
MARSHFIELD     CLEAR     57  48  72 W6        29.98S
STEVENS POINT  CLEAR     60  48  63 W5        29.98S
WAUPACA        CLEAR     63  50  63 W5        29.96S
WAUTOMA        CLEAR     58  51  78 W6        29.98S
WISC RAPIDS    CLEAR     59  50  72 W6        29.99S
CAMP DOUGLAS   CLEAR     52  48  87 W7        30.00S
$$

WIZ011>013-019>022-031-037>040-048>050-230400-
NORTHEAST WISCONSIN

CITY           SKY/WX    TMP DP  RH WIND       PRES   REMARKS
ANTIGO         CLEAR     56  49  78 W10       29.95S
SHAWANO        CLEAR     63  49  62 W7        29.93S
OCONTO         CLEAR     59  50  74 W6        29.91R
STURGEON BAY   PTCLDY    64  53  67 NW13      29.91S
GREEN BAY      CLEAR     58  53  84 W7        29.93S
MANITOWOC      MOCLDY    64  49  57 NW8       29.94R
APPLETON       PTCLDY    61  45  55 NW7       29.94S
CLINTONVILLE   CLEAR     61  46  59 NW9       29.94S
OSHKOSH        CLEAR     62  50  64 W8        29.95S
$$

WIZ032>034-041-042-053>061-230400-
SOUTHWEST WISCONSIN

CITY           SKY/WX    TMP DP  RH WIND       PRES   REMARKS
LA CROSSE      NOT AVBL
SPARTA         CLEAR     53  51  92 CALM      30.02F
VIROQUA        CLEAR     58  53  83 W5        30.03F
BOSCOBEL       CLEAR     59  54  83 SW5       30.03R
PRAIRIE DU CHI PTCLDY    62  51  66 NW5       30.04R
PLATTEVILLE    CLEAR     59  53  81 W6        30.04S
$$

WIZ056-057-062-063-064-067-068-230400-
SOUTH CENTRAL WISCONSIN

CITY           SKY/WX    TMP DP  RH WIND       PRES   REMARKS
REEDSBURG      CLEAR     60  51  72 CALM      30.00S
BARABOO/DELLS  CLEAR     60  49  65 W3        30.00S
LONE ROCK      CLEAR     59  54  83 W3        30.01S
MINERAL POINT  CLEAR     61  54  77 W3        30.04R
MADISON        CLEAR     63  51  65 VRB3      29.99S
MIDDLETON      CLEAR     60  53  78 W7        30.01S
WATERTOWN      CLEAR     60  53  76 W3        29.98S
MONROE         CLEAR     63  48  59 W8        30.03R
JANESVILLE     CLEAR     59  52  77 W5        30.00S
$$

WIZ051-052-058>065-066-070>072-230400-
SOUTHEAST WISCONSIN

CITY           SKY/WX    TMP DP  RH WIND       PRES   REMARKS
MILWAUKEE      PTCLDY    69  50  50 W7        29.96S
WAUKESHA       NOT AVBL
MILWAUKEE/TIMM PTCLDY    63  46  55 W6        29.98R
RACINE         CLEAR     63  52  67 W5        29.98S
KENOSHA        CLEAR     60  52  74 W6        29.98R
FOND DU LAC    CLEAR     62  49  62 W7        29.97R
SHEBOYGAN      CLEAR     62  53  72 W5        29.94S
WEST BEND      CLEAR     63  48  59 W8        29.97R
JUNEAU         CLEAR     60  51  72 W5        29.99R
$$

LSZ147-162-230400-
LAKE SUPERIOR

STATION/POSITION TIME  TEMP    WIND        PRES    WAVE
                       AIR SEA DIR/SP/G            HT/PER
                 (UTC) (F)     (DEG/KT/KT) (MB)    (FT/S)
W MID LAKE BUOY  0250   62 60  290/ 17/ 19 1011.7R   3/ 4
DEVILS ISLAND    0300   62     280/ 16/ 17 1013.8R
SAXON HARBOR     0230   61     260/  6/ 12 1013.5S
$$

LMZ867-665-643>646-230400-
LAKE MICHIGAN

STATION/POSITION TIME  TEMP    WIND        PRES    WAVE
                       AIR SEA DIR/SP/G            HT/PER
                 (UTC) (F)     (DEG/KT/KT) (MB)    (FT/S)
S GREEN BAY BUOY 0300   67 71  270/ 12/ 14 1012.7
N MID LAKE BUOY  0250   67 67  290/ 17/ 21 1011.0S   2/ 4
NORTHPORT PIER   0240   66     290/ 11/ 18 1011.2S
KEWAUNEE LAKESHO 0254   62     310/  3/  5 1012.2R
SHEBOYGAN LAKESH 0300   67     290/  9/ 11 1013.4R
PORT WASHINGTON  0240   67     270/  4/  7 1014.9R
ATWATER BUOY     0209   69 68  260/ 10/ 12 1014.5R
MILWAUKEE LAKESH 0300   69     280/ 10/ 12   N/A
S MID LAKE BUOY  0250   72 71  330/ 16/ 19 1013.7R   4/ 6
KENOSHA   LAKESH 0300   67     270/  8/ 11 1014.9
$$

TC  - TEMPERATURE IN CELSIUS
VSB - VISIBILITY IN STATUTE MILES
WCI - WIND CHILL INDEX
HX  - HEAT INDEX





USA.gov is the U.S. government's official web portal to all federal, state and local government web resources and services.